UKV59JW EFHK-EGCC

Flight info

Callsign UKV59JW
Flight time 2h 46m
Altitude 36000
Route KUVEM Y366 USITU DCT LUPET DCT AMSEV DCT VAXIT DCT REKNA DCT TILNI
Aircraft B738/M-SDE2E3FGIRWY/LB1

Departure

Time 2026-05-06 16:02
Airport Helsinki Vantaa Airport (EFHK)

Arrival

Time 2026-05-06 18:48
Airport Manchester Airport (EGCC)
Time Latitude Longitude Altitude Speed Heading
2026-05-06 15:39 60.31828 24.97040 162 ft 0 kts 242°
2026-05-06 15:52 60.31834 24.97064 162 ft 4 kts 246°
2026-05-06 15:52 60.31844 24.97113 162 ft 3 kts 243°
2026-05-06 15:52 60.31852 24.97148 162 ft 4 kts 284°
2026-05-06 15:52 60.31838 24.97179 162 ft 3 kts 332°
2026-05-06 15:53 60.31815 24.97205 162 ft 4 kts 330°
2026-05-06 15:53 60.31810 24.97212 162 ft 0 kts 332°
2026-05-06 15:55 60.31813 24.97208 162 ft 4 kts 332°
2026-05-06 15:55 60.31851 24.97169 162 ft 8 kts 332°
2026-05-06 15:55 60.31919 24.97096 162 ft 12 kts 333°
2026-05-06 15:55 60.31992 24.97022 162 ft 12 kts 333°
2026-05-06 15:56 60.32063 24.96949 162 ft 11 kts 332°
2026-05-06 15:56 60.32130 24.96871 163 ft 11 kts 329°
2026-05-06 15:56 60.32195 24.96796 164 ft 11 kts 330°
2026-05-06 15:56 60.32258 24.96724 165 ft 10 kts 329°
2026-05-06 15:57 60.32319 24.96652 167 ft 10 kts 329°
2026-05-06 15:57 60.32378 24.96581 172 ft 10 kts 329°
2026-05-06 15:57 60.32438 24.96510 175 ft 12 kts 329°
2026-05-06 15:57 60.32552 24.96374 173 ft 25 kts 331°
2026-05-06 15:58 60.32706 24.96202 171 ft 25 kts 330°
2026-05-06 15:58 60.32851 24.96032 173 ft 20 kts 329°
2026-05-06 15:58 60.32963 24.95903 176 ft 16 kts 331°
2026-05-06 15:58 60.33056 24.95790 180 ft 15 kts 325°
2026-05-06 15:59 60.33134 24.95651 179 ft 15 kts 315°
2026-05-06 15:59 60.33196 24.95495 181 ft 14 kts 288°
2026-05-06 15:59 60.33168 24.95312 178 ft 14 kts 238°
2026-05-06 15:59 60.33117 24.95141 177 ft 14 kts 252°
2026-05-06 16:00 60.33109 24.94955 177 ft 13 kts 272°
2026-05-06 16:00 60.33113 24.94772 180 ft 13 kts 272°
2026-05-06 16:00 60.33116 24.94606 184 ft 9 kts 272°
2026-05-06 16:00 60.33118 24.94519 186 ft 9 kts 275°
2026-05-06 16:01 60.33109 24.94393 189 ft 9 kts 242°
2026-05-06 16:01 60.33049 24.94245 189 ft 32 kts 226°
2026-05-06 16:01 60.32725 24.93532 179 ft 103 kts 227°
2026-05-06 16:01 60.32098 24.92150 167 ft 161 kts 227°
2026-05-06 16:02 60.31342 24.90436 864 ft 158 kts 228°
2026-05-06 16:02 60.30610 24.88804 1700 ft 159 kts 226°
2026-05-06 16:02 60.29881 24.87032 2142 ft 178 kts 242°
2026-05-06 16:02 60.29656 24.84463 2400 ft 203 kts 276°
2026-05-06 16:03 60.29995 24.81549 2631 ft 221 kts 282°
2026-05-06 16:03 60.30320 24.78454 3033 ft 229 kts 271°
2026-05-06 16:03 60.29931 24.75353 3519 ft 234 kts 248°
2026-05-06 16:03 60.29285 24.72236 3832 ft 250 kts 248°
2026-05-06 16:04 60.28605 24.68949 4516 ft 255 kts 248°
2026-05-06 16:04 60.27922 24.65635 5273 ft 258 kts 248°
2026-05-06 16:04 60.27222 24.62230 5894 ft 266 kts 249°
2026-05-06 16:04 60.26515 24.58784 6692 ft 266 kts 249°
2026-05-06 16:05 60.25805 24.55319 7395 ft 270 kts 249°
2026-05-06 16:05 60.25090 24.51836 8064 ft 274 kts 249°
2026-05-06 16:05 60.24369 24.48265 8749 ft 277 kts 252°
2026-05-06 16:05 60.23876 24.44452 9421 ft 279 kts 260°
2026-05-06 16:06 60.23528 24.40619 10172 ft 278 kts 261°
2026-05-06 16:06 60.23193 24.36695 10560 ft 294 kts 261°
2026-05-06 16:06 60.22832 24.32561 10742 ft 314 kts 261°
2026-05-06 16:06 60.22429 24.28096 10919 ft 333 kts 260°
2026-05-06 16:07 60.21995 24.23449 11387 ft 341 kts 260°
2026-05-06 16:07 60.21546 24.18749 12126 ft 340 kts 260°
2026-05-06 16:07 60.21096 24.14086 12912 ft 339 kts 259°
2026-05-06 16:07 60.20642 24.09423 13642 ft 340 kts 259°
2026-05-06 16:08 60.20187 24.04751 14328 ft 341 kts 259°
2026-05-06 16:08 60.19728 24.00068 15078 ft 341 kts 259°
2026-05-06 16:08 60.19266 23.95379 15776 ft 343 kts 259°
2026-05-06 16:08 60.18783 23.90701 16496 ft 342 kts 257°
2026-05-06 16:09 60.18236 23.86024 17172 ft 344 kts 256°
2026-05-06 16:09 60.17672 23.81407 17809 ft 345 kts 256°
2026-05-06 16:09 60.17096 23.76724 18449 ft 346 kts 256°
2026-05-06 16:09 60.16519 23.72032 19055 ft 347 kts 256°
2026-05-06 16:10 60.15943 23.67322 19656 ft 348 kts 256°
2026-05-06 16:10 60.15365 23.62595 20220 ft 350 kts 256°
2026-05-06 16:10 60.14785 23.57849 20777 ft 350 kts 256°
2026-05-06 16:10 60.14204 23.53091 21306 ft 352 kts 256°
2026-05-06 16:11 60.13617 23.48296 21833 ft 354 kts 256°
2026-05-06 16:11 60.13027 23.43497 22348 ft 355 kts 256°
2026-05-06 16:11 60.12434 23.38681 22824 ft 356 kts 256°
2026-05-06 16:11 60.11837 23.33851 23319 ft 357 kts 255°
2026-05-06 16:12 60.11237 23.29007 23798 ft 358 kts 255°
2026-05-06 16:12 60.10632 23.24149 24240 ft 359 kts 255°
2026-05-06 16:12 60.10025 23.19282 24657 ft 361 kts 255°
2026-05-06 16:12 60.09413 23.14396 25045 ft 362 kts 255°
2026-05-06 16:13 60.08796 23.09481 25414 ft 365 kts 254°
2026-05-06 16:13 60.08173 23.04546 25793 ft 366 kts 254°
2026-05-06 16:13 60.07548 22.99601 26167 ft 367 kts 254°
2026-05-06 16:13 60.06928 22.94713 26533 ft 368 kts 253°
2026-05-06 16:14 60.06294 22.89730 26834 ft 370 kts 253°
2026-05-06 16:14 60.05653 22.84709 27121 ft 373 kts 253°
2026-05-06 16:14 60.05010 22.79668 27452 ft 373 kts 253°
2026-05-06 16:14 60.04361 22.74628 27723 ft 375 kts 253°
2026-05-06 16:15 60.03707 22.69562 28012 ft 377 kts 253°
2026-05-06 16:15 60.03050 22.64470 28284 ft 379 kts 252°
2026-05-06 16:15 60.02390 22.59366 28616 ft 379 kts 252°
2026-05-06 16:15 60.01731 22.54281 28988 ft 377 kts 252°
2026-05-06 16:16 60.01076 22.49227 29423 ft 374 kts 252°
2026-05-06 16:16 60.00424 22.44205 29835 ft 372 kts 251°
2026-05-06 16:16 59.99772 22.39205 30138 ft 373 kts 251°
2026-05-06 16:16 59.99116 22.34200 30451 ft 373 kts 251°
2026-05-06 16:17 59.98464 22.29239 30642 ft 375 kts 251°
2026-05-06 16:17 59.97798 22.24198 30988 ft 374 kts 251°
2026-05-06 16:17 59.97137 22.19206 31396 ft 371 kts 251°
2026-05-06 16:17 59.96478 22.14232 31831 ft 367 kts 251°
2026-05-06 16:18 59.95827 22.09333 32177 ft 366 kts 251°
2026-05-06 16:18 59.95172 22.04431 32438 ft 366 kts 251°
2026-05-06 16:18 59.94515 21.99526 32692 ft 366 kts 251°
2026-05-06 16:18 59.93857 21.94635 32998 ft 364 kts 251°
2026-05-06 16:19 59.93199 21.89756 33330 ft 362 kts 250°
2026-05-06 16:19 59.92545 21.84921 33633 ft 361 kts 250°
2026-05-06 16:19 59.91890 21.80096 33865 ft 361 kts 250°
2026-05-06 16:19 59.91240 21.75317 34063 ft 361 kts 250°
2026-05-06 16:20 59.90580 21.70481 34264 ft 362 kts 251°
2026-05-06 16:20 59.89916 21.65636 34413 ft 364 kts 251°
2026-05-06 16:20 59.89245 21.60756 34538 ft 366 kts 251°
2026-05-06 16:20 59.88567 21.55837 34660 ft 369 kts 251°
2026-05-06 16:21 59.87889 21.50921 34876 ft 368 kts 251°
2026-05-06 16:21 59.87208 21.45994 35022 ft 370 kts 251°
2026-05-06 16:21 59.85816 21.36012 35148 ft 377 kts 251°
2026-05-06 16:22 59.85106 21.30961 35291 ft 379 kts 251°
2026-05-06 16:22 59.84392 21.25917 35477 ft 379 kts 251°
2026-05-06 16:22 59.82947 21.15752 35679 ft 383 kts 251°
2026-05-06 16:23 59.82229 21.10714 35899 ft 382 kts 251°
2026-05-06 16:23 59.81500 21.05611 36004 ft 384 kts 251°
2026-05-06 16:23 59.80026 20.95344 36016 ft 387 kts 251°
2026-05-06 16:24 59.78545 20.85089 36014 ft 384 kts 251°
2026-05-06 16:24 59.77078 20.74979 36017 ft 383 kts 251°
2026-05-06 16:25 59.75597 20.64857 36018 ft 381 kts 251°
2026-05-06 16:25 59.74112 20.54768 36019 ft 380 kts 251°
2026-05-06 16:26 59.72622 20.44708 36018 ft 380 kts 251°
2026-05-06 16:26 59.71125 20.34656 36020 ft 381 kts 251°
2026-05-06 16:27 59.69654 20.24831 36020 ft 381 kts 251°
2026-05-06 16:27 59.68138 20.14774 36013 ft 382 kts 251°
2026-05-06 16:28 59.66609 20.04685 36009 ft 383 kts 251°
2026-05-06 16:28 59.65071 19.94588 36007 ft 383 kts 251°
2026-05-06 16:29 59.63545 19.84484 36010 ft 384 kts 252°
2026-05-06 16:29 59.62226 19.74247 36009 ft 385 kts 253°
2026-05-06 16:30 59.61163 19.65689 36009 ft 385 kts 253°
2026-05-06 16:30 59.59645 19.53687 36006 ft 386 kts 253°
2026-05-06 16:31 59.58327 19.43475 35999 ft 386 kts 253°
2026-05-06 16:31 59.56988 19.33217 36001 ft 386 kts 252°
2026-05-06 16:32 59.55636 19.22946 35997 ft 387 kts 252°
2026-05-06 16:32 59.54277 19.12685 35991 ft 387 kts 252°
2026-05-06 16:33 59.52905 19.02394 35992 ft 388 kts 252°
2026-05-06 16:34 59.50829 18.86956 35991 ft 389 kts 252°
2026-05-06 16:34 59.49434 18.76659 35992 ft 390 kts 252°
2026-05-06 16:35 59.48035 18.66419 35985 ft 390 kts 252°
2026-05-06 16:35 59.46619 18.56115 35981 ft 390 kts 252°
2026-05-06 16:36 59.45195 18.45848 35975 ft 389 kts 252°
2026-05-06 16:36 59.43769 18.35589 35982 ft 388 kts 251°
2026-05-06 16:37 59.42338 18.25367 35980 ft 388 kts 251°
2026-05-06 16:37 59.40902 18.15168 35990 ft 387 kts 251°
2026-05-06 16:38 59.39458 18.04992 35991 ft 387 kts 251°
2026-05-06 16:38 59.38015 17.94893 35988 ft 386 kts 251°
2026-05-06 16:39 59.36558 17.84752 35988 ft 386 kts 251°
2026-05-06 16:39 59.35093 17.74623 35992 ft 387 kts 251°
2026-05-06 16:40 59.33616 17.64476 35993 ft 387 kts 251°
2026-05-06 16:40 59.32133 17.54338 35990 ft 387 kts 251°
2026-05-06 16:41 59.30646 17.44248 35990 ft 388 kts 250°
2026-05-06 16:41 59.29141 17.34083 35984 ft 389 kts 250°
2026-05-06 16:42 59.27625 17.23919 35991 ft 390 kts 250°
2026-05-06 16:42 59.26092 17.13712 35975 ft 392 kts 250°
2026-05-06 16:43 59.24546 17.03470 35972 ft 393 kts 250°
2026-05-06 16:43 59.22987 16.93202 35982 ft 394 kts 250°
2026-05-06 16:44 59.21429 16.83008 35980 ft 395 kts 250°
2026-05-06 16:44 59.19848 16.72722 35972 ft 396 kts 250°
2026-05-06 16:45 59.18255 16.62424 35970 ft 396 kts 250°
2026-05-06 16:45 59.16657 16.52154 35971 ft 396 kts 250°
2026-05-06 16:46 59.15052 16.41894 35971 ft 395 kts 250°
2026-05-06 16:46 59.13451 16.31729 35970 ft 395 kts 250°
2026-05-06 16:47 59.11834 16.21521 35972 ft 394 kts 250°
2026-05-06 16:47 59.10210 16.11331 35963 ft 394 kts 249°
2026-05-06 16:48 59.08577 16.01139 35960 ft 394 kts 249°
2026-05-06 16:48 59.06938 15.90974 35957 ft 394 kts 249°
2026-05-06 16:49 59.05292 15.80823 35952 ft 394 kts 249°
2026-05-06 16:49 59.03639 15.70680 35956 ft 394 kts 249°
2026-05-06 16:50 59.01971 15.60518 35952 ft 395 kts 249°
2026-05-06 16:50 59.00308 15.50437 35943 ft 395 kts 249°
2026-05-06 16:51 58.98622 15.40273 35950 ft 395 kts 249°
2026-05-06 16:51 58.97214 15.31834 35944 ft 396 kts 249°
2026-05-06 16:52 58.95510 15.21665 35945 ft 397 kts 249°
2026-05-06 16:52 58.93796 15.11499 35934 ft 397 kts 249°
2026-05-06 16:53 58.92070 15.01313 35935 ft 398 kts 249°
2026-05-06 16:53 58.90337 14.91149 35936 ft 398 kts 249°
2026-05-06 16:54 58.88593 14.80977 35931 ft 398 kts 249°
2026-05-06 16:54 58.86850 14.70870 35935 ft 398 kts 249°
2026-05-06 16:55 58.85088 14.60700 35933 ft 398 kts 248°
2026-05-06 16:55 58.83322 14.50571 35935 ft 398 kts 248°
2026-05-06 16:56 58.81546 14.40437 35933 ft 398 kts 248°
2026-05-06 16:56 58.79776 14.30396 35937 ft 398 kts 248°
2026-05-06 16:57 58.77983 14.20279 35933 ft 398 kts 248°
2026-05-06 16:57 58.76184 14.10184 35937 ft 398 kts 248°
2026-05-06 16:58 58.74374 14.00083 35936 ft 399 kts 248°
2026-05-06 16:58 58.72565 13.90039 35933 ft 399 kts 248°
2026-05-06 16:59 58.70740 13.79957 35936 ft 399 kts 248°
2026-05-06 16:59 58.68901 13.69866 35936 ft 399 kts 248°
2026-05-06 17:00 58.67059 13.59794 35936 ft 399 kts 248°
2026-05-06 17:00 58.65208 13.49736 35927 ft 400 kts 248°
2026-05-06 17:01 58.63350 13.39691 35930 ft 400 kts 248°
2026-05-06 17:01 58.61478 13.29623 35920 ft 400 kts 248°
2026-05-06 17:02 58.59603 13.19585 35920 ft 400 kts 248°
2026-05-06 17:02 58.57730 13.09618 35918 ft 400 kts 248°
2026-05-06 17:03 58.55839 12.99606 35919 ft 400 kts 248°
2026-05-06 17:03 58.53938 12.89593 35911 ft 399 kts 248°
2026-05-06 17:04 58.52033 12.79610 35920 ft 399 kts 247°
2026-05-06 17:04 58.50123 12.69654 35915 ft 399 kts 247°
2026-05-06 17:05 58.48216 12.59760 35915 ft 398 kts 247°
2026-05-06 17:05 58.46288 12.49811 35913 ft 398 kts 247°
2026-05-06 17:06 58.44360 12.39914 35920 ft 397 kts 247°
2026-05-06 17:06 58.42438 12.30093 35930 ft 397 kts 247°
2026-05-06 17:07 58.40493 12.20220 35938 ft 397 kts 247°
2026-05-06 17:07 58.38541 12.10343 35939 ft 398 kts 247°
2026-05-06 17:08 58.36574 12.00439 35937 ft 400 kts 247°
2026-05-06 17:08 58.34595 11.90532 35937 ft 400 kts 247°
2026-05-06 17:09 58.32620 11.80692 35938 ft 401 kts 247°
2026-05-06 17:09 58.30620 11.70774 35939 ft 401 kts 247°
2026-05-06 17:10 58.28617 11.60893 35947 ft 401 kts 247°
2026-05-06 17:10 58.26606 11.51022 35942 ft 401 kts 247°
2026-05-06 17:11 58.24585 11.41148 35944 ft 400 kts 247°
2026-05-06 17:11 58.22559 11.31302 35945 ft 400 kts 246°
2026-05-06 17:12 58.20526 11.21473 35946 ft 400 kts 246°
2026-05-06 17:12 58.18515 11.11784 35942 ft 399 kts 246°
2026-05-06 17:13 58.16487 11.02068 35945 ft 398 kts 246°
2026-05-06 17:13 58.14443 10.92315 35944 ft 398 kts 246°
2026-05-06 17:14 58.12393 10.82595 35942 ft 398 kts 246°
2026-05-06 17:14 58.10334 10.72893 35943 ft 397 kts 246°
2026-05-06 17:15 58.08172 10.63276 35947 ft 397 kts 245°
2026-05-06 17:15 58.05984 10.53743 35947 ft 397 kts 245°
2026-05-06 17:16 58.03787 10.44168 35944 ft 398 kts 245°
2026-05-06 17:16 58.01587 10.34588 35946 ft 398 kts 245°
2026-05-06 17:17 57.99380 10.25005 35947 ft 399 kts 245°
2026-05-06 17:17 57.97162 10.15406 35949 ft 399 kts 245°
2026-05-06 17:18 57.94936 10.05816 35956 ft 400 kts 245°
2026-05-06 17:18 57.92697 9.96215 35954 ft 401 kts 245°
2026-05-06 17:19 57.90464 9.86682 35954 ft 401 kts 245°
2026-05-06 17:19 57.88206 9.77090 35957 ft 401 kts 245°
2026-05-06 17:20 57.85939 9.67498 35961 ft 401 kts 244°
2026-05-06 17:20 57.83671 9.57937 35965 ft 400 kts 244°
2026-05-06 17:21 57.81394 9.48398 35964 ft 401 kts 244°
2026-05-06 17:21 57.79122 9.38912 35961 ft 401 kts 244°
2026-05-06 17:22 57.76833 9.29394 35963 ft 401 kts 244°
2026-05-06 17:22 57.74534 9.19876 35963 ft 401 kts 244°
2026-05-06 17:23 57.72224 9.10355 35965 ft 401 kts 244°
2026-05-06 17:23 57.69907 9.00850 35957 ft 402 kts 244°
2026-05-06 17:24 57.67579 8.91342 35964 ft 402 kts 244°
2026-05-06 17:24 57.65255 8.81887 35964 ft 403 kts 244°
2026-05-06 17:25 57.62910 8.72383 35961 ft 403 kts 244°
2026-05-06 17:25 57.60556 8.62896 35964 ft 403 kts 244°
2026-05-06 17:26 57.58196 8.53424 35965 ft 403 kts 244°
2026-05-06 17:26 57.55826 8.43945 35961 ft 403 kts 244°
2026-05-06 17:27 57.53451 8.34492 35962 ft 402 kts 244°
2026-05-06 17:27 57.51089 8.25131 35967 ft 402 kts 244°
2026-05-06 17:28 57.48708 8.15732 35960 ft 401 kts 244°
2026-05-06 17:28 57.46322 8.06357 35952 ft 401 kts 244°
2026-05-06 17:29 57.43929 7.96996 35964 ft 400 kts 244°
2026-05-06 17:29 57.41539 7.87676 35971 ft 400 kts 244°
2026-05-06 17:30 57.39138 7.78352 35972 ft 400 kts 243°
2026-05-06 17:30 57.36730 7.69046 35974 ft 401 kts 243°
2026-05-06 17:31 57.34310 7.59729 35969 ft 401 kts 243°
2026-05-06 17:31 57.31881 7.50425 35971 ft 402 kts 243°
2026-05-06 17:32 57.29456 7.41171 35980 ft 403 kts 243°
2026-05-06 17:32 57.26996 7.31824 35972 ft 404 kts 243°
2026-05-06 17:33 57.24529 7.22478 35973 ft 406 kts 243°
2026-05-06 17:33 57.22046 7.13115 35981 ft 406 kts 243°
2026-05-06 17:34 57.19552 7.03749 35983 ft 407 kts 243°
2026-05-06 17:34 57.17045 6.94374 35978 ft 407 kts 243°
2026-05-06 17:35 57.14530 6.85015 35982 ft 408 kts 243°
2026-05-06 17:35 57.12005 6.75651 35980 ft 408 kts 243°
2026-05-06 17:36 57.08204 6.61625 35981 ft 408 kts 243°
2026-05-06 17:36 57.05679 6.52358 35982 ft 408 kts 243°
2026-05-06 17:37 57.03136 6.43061 35978 ft 407 kts 243°
2026-05-06 17:37 57.00589 6.33786 35983 ft 407 kts 243°
2026-05-06 17:38 56.98037 6.24537 35985 ft 406 kts 243°
2026-05-06 17:38 56.95480 6.15302 35983 ft 406 kts 242°
2026-05-06 17:39 56.92916 6.06077 35981 ft 406 kts 242°
2026-05-06 17:39 56.90343 5.96861 35977 ft 407 kts 242°
2026-05-06 17:40 56.88196 5.89196 35987 ft 407 kts 243°
2026-05-06 17:40 56.85608 5.79995 35984 ft 408 kts 242°
2026-05-06 17:41 56.83006 5.70779 35995 ft 408 kts 242°
2026-05-06 17:41 56.80385 5.61536 35992 ft 410 kts 242°
2026-05-06 17:42 56.77757 5.52303 35993 ft 410 kts 242°
2026-05-06 17:42 56.75118 5.43065 36002 ft 411 kts 242°
2026-05-06 17:43 56.72471 5.33840 36014 ft 411 kts 242°
2026-05-06 17:43 56.69837 5.24691 36018 ft 411 kts 242°
2026-05-06 17:44 56.67178 5.15494 36031 ft 411 kts 242°
2026-05-06 17:44 56.64506 5.06297 36050 ft 411 kts 242°
2026-05-06 17:45 56.61824 4.97093 36052 ft 412 kts 242°
2026-05-06 17:45 56.59134 4.87896 36055 ft 412 kts 242°
2026-05-06 17:46 56.56463 4.78802 36044 ft 412 kts 242°
2026-05-06 17:46 56.53759 4.69635 36050 ft 412 kts 242°
2026-05-06 17:47 56.51050 4.60486 36033 ft 412 kts 242°
2026-05-06 17:47 56.48335 4.51353 36035 ft 412 kts 242°
2026-05-06 17:48 56.45612 4.42225 36049 ft 412 kts 242°
2026-05-06 17:48 56.42883 4.33114 36032 ft 412 kts 242°
2026-05-06 17:49 56.40143 4.24006 36034 ft 412 kts 242°
2026-05-06 17:49 56.37399 4.14913 36036 ft 413 kts 242°
2026-05-06 17:50 56.34660 4.05873 36034 ft 413 kts 241°
2026-05-06 17:50 56.31897 3.96788 36035 ft 413 kts 241°
2026-05-06 17:51 56.29120 3.87691 36050 ft 414 kts 241°
2026-05-06 17:51 56.26337 3.78613 36036 ft 415 kts 241°
2026-05-06 17:52 56.23544 3.69538 36050 ft 415 kts 241°
2026-05-06 17:52 56.20762 3.60524 36047 ft 415 kts 241°
2026-05-06 17:53 56.17954 3.51468 36046 ft 415 kts 241°
2026-05-06 17:53 56.15309 3.42250 36051 ft 415 kts 244°
2026-05-06 17:54 56.12804 3.32915 36044 ft 414 kts 244°
2026-05-06 17:54 56.10298 3.23608 36034 ft 414 kts 244°
2026-05-06 17:55 56.07784 3.14387 36040 ft 414 kts 244°
2026-05-06 17:55 56.05239 3.05126 36054 ft 414 kts 244°
2026-05-06 17:56 56.02686 2.95886 36044 ft 414 kts 244°
2026-05-06 17:56 56.00131 2.86675 36046 ft 414 kts 244°
2026-05-06 17:57 55.97560 2.77441 36035 ft 414 kts 244°
2026-05-06 17:57 55.95005 2.68304 36048 ft 415 kts 244°
2026-05-06 17:58 55.92413 2.59071 36047 ft 416 kts 244°
2026-05-06 17:58 55.89811 2.49837 36051 ft 417 kts 243°
2026-05-06 17:59 55.87201 2.40612 36051 ft 418 kts 243°
2026-05-06 17:59 55.84574 2.31365 36044 ft 418 kts 243°
2026-05-06 18:00 55.81936 2.22119 36046 ft 419 kts 243°
2026-05-06 18:00 55.79309 2.12948 36043 ft 419 kts 243°
2026-05-06 18:01 55.76651 2.03703 36037 ft 419 kts 243°
2026-05-06 18:01 55.73991 1.94487 36035 ft 419 kts 243°
2026-05-06 18:02 55.71326 1.85289 36032 ft 419 kts 243°
2026-05-06 18:02 55.68670 1.76161 36036 ft 418 kts 243°
2026-05-06 18:03 55.66000 1.67023 36037 ft 418 kts 243°
2026-05-06 18:03 55.63322 1.57889 36034 ft 417 kts 243°
2026-05-06 18:04 55.60641 1.48781 36052 ft 417 kts 243°
2026-05-06 18:04 55.57951 1.39678 36032 ft 417 kts 243°
2026-05-06 18:05 55.55253 1.30583 36036 ft 418 kts 243°
2026-05-06 18:05 55.52550 1.21505 36034 ft 418 kts 243°
2026-05-06 18:06 55.49832 1.12415 36045 ft 419 kts 243°
2026-05-06 18:06 55.47120 1.03377 36032 ft 420 kts 243°
2026-05-06 18:07 55.44373 0.94253 36036 ft 422 kts 243°
2026-05-06 18:07 55.41610 0.85122 36036 ft 423 kts 243°
2026-05-06 18:08 55.38830 0.75963 36044 ft 424 kts 243°
2026-05-06 18:08 55.36036 0.66798 36035 ft 426 kts 243°
2026-05-06 18:09 55.33227 0.57618 36034 ft 427 kts 243°
2026-05-06 18:09 55.30422 0.48489 36034 ft 427 kts 243°
2026-05-06 18:10 55.27592 0.39309 36036 ft 428 kts 243°
2026-05-06 18:10 55.24758 0.30149 36049 ft 427 kts 243°
2026-05-06 18:11 55.21911 0.20987 36054 ft 427 kts 243°
2026-05-06 18:11 55.19083 0.11921 36045 ft 426 kts 243°
2026-05-06 18:12 55.16235 0.02824 36035 ft 426 kts 243°
2026-05-06 18:12 55.13380 -0.06261 36036 ft 426 kts 243°
2026-05-06 18:13 55.10536 -0.15278 36048 ft 426 kts 244°
2026-05-06 18:13 55.07653 -0.24382 36054 ft 428 kts 244°
2026-05-06 18:14 55.04756 -0.33495 36057 ft 431 kts 243°
2026-05-06 18:14 55.01834 -0.42653 36049 ft 433 kts 243°
2026-05-06 18:15 54.98897 -0.51825 36054 ft 435 kts 243°
2026-05-06 18:15 54.95937 -0.61030 36048 ft 436 kts 243°
2026-05-06 18:16 54.92971 -0.70222 36038 ft 436 kts 243°
2026-05-06 18:16 54.89996 -0.79403 36045 ft 436 kts 243°
2026-05-06 18:17 54.87018 -0.88554 36042 ft 435 kts 243°
2026-05-06 18:17 54.85525 -0.93135 35857 ft 438 kts 243°
2026-05-06 18:17 54.84017 -0.97755 35320 ft 440 kts 243°
2026-05-06 18:18 54.82505 -1.02374 34684 ft 439 kts 243°
2026-05-06 18:18 54.81002 -1.06955 34189 ft 436 kts 243°
2026-05-06 18:18 54.79526 -1.11442 33740 ft 432 kts 243°
2026-05-06 18:18 54.78042 -1.15949 33281 ft 428 kts 243°
2026-05-06 18:19 54.76572 -1.20404 32829 ft 424 kts 243°
2026-05-06 18:19 54.75112 -1.24820 32378 ft 420 kts 243°
2026-05-06 18:19 54.73667 -1.29184 31925 ft 416 kts 243°
2026-05-06 18:19 54.72232 -1.33512 31490 ft 413 kts 243°
2026-05-06 18:20 54.70807 -1.37803 31061 ft 410 kts 243°
2026-05-06 18:20 54.69387 -1.42071 30606 ft 406 kts 243°
2026-05-06 18:20 54.67981 -1.46289 30183 ft 403 kts 243°
2026-05-06 18:20 54.66584 -1.50477 29754 ft 400 kts 243°
2026-05-06 18:21 54.65197 -1.54623 29312 ft 397 kts 243°
2026-05-06 18:21 54.63823 -1.58724 28869 ft 393 kts 243°
2026-05-06 18:21 54.62472 -1.62750 28442 ft 391 kts 243°
2026-05-06 18:21 54.61101 -1.66838 27988 ft 387 kts 243°
2026-05-06 18:22 54.59774 -1.70783 27576 ft 384 kts 242°
2026-05-06 18:22 54.58433 -1.74757 27141 ft 381 kts 242°
2026-05-06 18:22 54.57100 -1.78700 26718 ft 379 kts 242°
2026-05-06 18:22 54.55647 -1.82473 26268 ft 379 kts 229°
2026-05-06 18:23 54.53560 -1.85263 25840 ft 382 kts 211°
2026-05-06 18:23 54.51053 -1.86842 25337 ft 388 kts 194°
2026-05-06 18:23 54.48398 -1.87703 24852 ft 388 kts 192°
2026-05-06 18:23 54.45732 -1.88478 24343 ft 387 kts 192°
2026-05-06 18:24 54.43108 -1.89235 23841 ft 386 kts 192°
2026-05-06 18:24 54.40459 -1.90018 23343 ft 385 kts 193°
2026-05-06 18:24 54.37825 -1.90819 22838 ft 384 kts 193°
2026-05-06 18:24 54.35199 -1.91630 22339 ft 382 kts 193°
2026-05-06 18:25 54.32589 -1.92444 21834 ft 381 kts 193°
2026-05-06 18:25 54.29993 -1.93254 21334 ft 374 kts 193°
2026-05-06 18:25 54.27470 -1.94038 20857 ft 364 kts 193°
2026-05-06 18:25 54.24983 -1.94820 20395 ft 362 kts 195°
2026-05-06 18:26 54.22681 -1.96423 19910 ft 355 kts 217°
2026-05-06 18:26 54.20892 -1.99240 19479 ft 347 kts 234°
2026-05-06 18:26 54.19512 -2.02588 19040 ft 344 kts 238°
2026-05-06 18:26 54.18169 -2.05973 18598 ft 343 kts 237°
2026-05-06 18:27 54.16819 -2.09321 18153 ft 342 kts 237°
2026-05-06 18:27 54.15456 -2.12649 17710 ft 341 kts 236°
2026-05-06 18:27 54.14033 -2.15878 17260 ft 340 kts 234°
2026-05-06 18:27 54.12588 -2.19001 16825 ft 339 kts 233°
2026-05-06 18:28 54.11127 -2.22137 16384 ft 337 kts 233°
2026-05-06 18:28 54.09674 -2.25268 15937 ft 336 kts 233°
2026-05-06 18:28 54.08230 -2.28395 15498 ft 335 kts 233°
2026-05-06 18:28 54.06794 -2.31516 15058 ft 334 kts 233°
2026-05-06 18:29 54.05364 -2.34623 14629 ft 333 kts 233°
2026-05-06 18:29 54.04401 -2.36715 14328 ft 331 kts 233°
2026-05-06 18:29 54.02958 -2.39765 13889 ft 331 kts 228°
2026-05-06 18:29 54.01078 -2.42000 13445 ft 334 kts 204°
2026-05-06 18:30 53.98819 -2.42867 13028 ft 335 kts 183°
2026-05-06 18:30 53.96488 -2.42530 12622 ft 335 kts 173°
2026-05-06 18:30 53.94208 -2.41944 12173 ft 335 kts 172°
2026-05-06 18:30 53.92754 -2.41547 11900 ft 335 kts 172°
2026-05-06 18:31 53.90385 -2.40899 11441 ft 334 kts 172°
2026-05-06 18:31 53.88093 -2.40285 11008 ft 332 kts 172°
2026-05-06 18:31 53.85809 -2.39688 10582 ft 331 kts 173°
2026-05-06 18:31 53.83536 -2.39105 10147 ft 330 kts 172°
2026-05-06 18:32 53.81284 -2.38533 9934 ft 321 kts 173°
2026-05-06 18:32 53.79148 -2.37993 9917 ft 307 kts 173°
2026-05-06 18:32 53.77077 -2.37471 9841 ft 295 kts 173°
2026-05-06 18:32 53.75077 -2.36969 9764 ft 285 kts 173°
2026-05-06 18:33 53.73145 -2.36485 9601 ft 278 kts 173°
2026-05-06 18:33 53.71241 -2.36010 9339 ft 276 kts 173°
2026-05-06 18:33 53.69342 -2.35536 9053 ft 275 kts 173°
2026-05-06 18:33 53.67459 -2.35066 8857 ft 270 kts 173°
2026-05-06 18:34 53.65621 -2.34883 8697 ft 262 kts 191°
2026-05-06 18:34 53.63964 -2.36009 8450 ft 256 kts 216°
2026-05-06 18:34 53.62559 -2.37747 8180 ft 255 kts 219°
2026-05-06 18:34 53.61164 -2.39591 7916 ft 255 kts 219°
2026-05-06 18:35 53.59777 -2.41442 7651 ft 254 kts 219°
2026-05-06 18:35 53.58400 -2.43292 7387 ft 253 kts 220°
2026-05-06 18:35 53.57029 -2.45140 7142 ft 252 kts 220°
2026-05-06 18:35 53.55667 -2.46980 6905 ft 250 kts 220°
2026-05-06 18:36 53.54332 -2.48792 6630 ft 250 kts 220°
2026-05-06 18:36 53.52979 -2.50631 6359 ft 249 kts 220°
2026-05-06 18:36 53.51647 -2.52447 6082 ft 248 kts 220°
2026-05-06 18:36 53.50312 -2.54272 5840 ft 247 kts 220°
2026-05-06 18:37 53.48980 -2.56093 5570 ft 247 kts 219°
2026-05-06 18:37 53.47652 -2.57918 5306 ft 246 kts 220°
2026-05-06 18:37 53.46331 -2.59740 5120 ft 244 kts 219°
2026-05-06 18:37 53.45022 -2.61555 4987 ft 243 kts 219°
2026-05-06 18:38 53.43716 -2.63370 4876 ft 245 kts 220°
2026-05-06 18:38 53.42400 -2.65208 4769 ft 247 kts 220°
2026-05-06 18:38 53.41087 -2.67046 4669 ft 246 kts 220°
2026-05-06 18:38 53.39774 -2.68887 4588 ft 246 kts 220°
2026-05-06 18:39 53.38465 -2.70722 4514 ft 245 kts 220°
2026-05-06 18:39 53.37163 -2.72550 4446 ft 244 kts 220°
2026-05-06 18:39 53.35754 -2.74101 4360 ft 242 kts 198°
2026-05-06 18:40 53.32591 -2.73294 4252 ft 239 kts 152°
2026-05-06 18:40 53.31105 -2.71986 4161 ft 243 kts 149°
2026-05-06 18:40 53.29638 -2.70546 4056 ft 245 kts 148°
2026-05-06 18:40 53.28171 -2.69077 3958 ft 245 kts 148°
2026-05-06 18:41 53.26731 -2.67633 3866 ft 237 kts 148°
2026-05-06 18:41 53.25356 -2.66257 3783 ft 223 kts 148°
2026-05-06 18:41 53.24063 -2.64975 3681 ft 209 kts 148°
2026-05-06 18:41 53.22857 -2.63791 3611 ft 193 kts 148°
2026-05-06 18:42 53.21741 -2.62680 3552 ft 179 kts 146°
2026-05-06 18:42 53.20693 -2.61585 3524 ft 176 kts 144°
2026-05-06 18:42 53.19975 -2.60034 3465 ft 171 kts 97°
2026-05-06 18:42 53.20258 -2.58185 3460 ft 170 kts 53°
2026-05-06 18:43 53.20978 -2.56602 3392 ft 175 kts 54°
2026-05-06 18:43 53.21710 -2.54997 3307 ft 175 kts 53°
2026-05-06 18:43 53.22467 -2.53391 3196 ft 172 kts 52°
2026-05-06 18:43 53.23200 -2.51854 3067 ft 169 kts 52°
2026-05-06 18:44 53.23935 -2.50320 3018 ft 169 kts 52°
2026-05-06 18:44 53.24677 -2.48778 2833 ft 169 kts 52°
2026-05-06 18:44 53.25394 -2.47287 2599 ft 160 kts 52°
2026-05-06 18:44 53.26076 -2.45866 2453 ft 155 kts 52°
2026-05-06 18:45 53.26748 -2.44465 2209 ft 151 kts 52°
2026-05-06 18:45 53.27390 -2.43131 2013 ft 146 kts 52°
2026-05-06 18:45 53.28022 -2.41818 1817 ft 147 kts 52°
2026-05-06 18:45 53.28663 -2.40483 1623 ft 147 kts 52°
2026-05-06 18:46 53.29307 -2.39145 1429 ft 148 kts 52°
2026-05-06 18:46 53.29946 -2.37813 1199 ft 146 kts 52°
2026-05-06 18:46 53.30580 -2.36514 962 ft 142 kts 51°
2026-05-06 18:46 53.31209 -2.35231 774 ft 142 kts 53°
2026-05-06 18:47 53.31807 -2.33913 651 ft 143 kts 53°
2026-05-06 18:47 53.32441 -2.32620 511 ft 144 kts 52°
2026-05-06 18:47 53.33075 -2.31320 304 ft 143 kts 52°
2026-05-06 18:47 53.33688 -2.30041 208 ft 132 kts 51°
2026-05-06 18:48 53.34189 -2.29013 212 ft 90 kts 50°
2026-05-06 18:48 53.34463 -2.28568 219 ft 37 kts 27°
2026-05-06 18:48 53.34638 -2.28446 231 ft 15 kts 24°
2026-05-06 18:48 53.34715 -2.28376 231 ft 7 kts 40°
2026-05-06 18:49 53.34729 -2.28354 232 ft 2 kts 44°
2026-05-06 18:49 53.34740 -2.28335 232 ft 4 kts 47°
2026-05-06 18:49 53.34773 -2.28276 235 ft 7 kts 48°
2026-05-06 18:49 53.34805 -2.28212 239 ft 7 kts 50°
2026-05-06 18:50 53.34840 -2.28136 237 ft 12 kts 52°
2026-05-06 18:50 53.34908 -2.27992 239 ft 17 kts 51°
2026-05-06 18:50 53.34978 -2.27842 237 ft 16 kts 53°
2026-05-06 18:50 53.35047 -2.27701 241 ft 15 kts 50°
2026-05-06 18:51 53.35114 -2.27566 244 ft 15 kts 50°
2026-05-06 18:51 53.35178 -2.27436 247 ft 14 kts 50°
2026-05-06 18:51 53.35239 -2.27312 250 ft 13 kts 51°
2026-05-06 18:51 53.35297 -2.27193 252 ft 13 kts 51°
2026-05-06 18:52 53.35353 -2.27077 255 ft 13 kts 51°
2026-05-06 18:52 53.35408 -2.26965 256 ft 12 kts 51°
2026-05-06 18:52 53.35459 -2.26854 259 ft 12 kts 52°
2026-05-06 18:52 53.35512 -2.26742 261 ft 13 kts 50°
2026-05-06 18:53 53.35587 -2.26637 264 ft 13 kts 26°
2026-05-06 18:53 53.35667 -2.26667 266 ft 12 kts 347°
2026-05-06 18:53 53.35755 -2.26667 265 ft 13 kts 357°
2026-05-06 18:53 53.35844 -2.26685 264 ft 13 kts 352°
2026-05-06 18:54 53.35948 -2.26716 253 ft 17 kts 348°
2026-05-06 18:54 53.36037 -2.26725 247 ft 12 kts 341°
2026-05-06 18:54 53.36079 -2.26778 246 ft 3 kts 316°
2026-05-06 18:54 53.36089 -2.26796 246 ft 0 kts 315°